Weather History for KMBG - March, 2013

Change the Weather History Date:

Wednesday, March 6, 2013

  Actual Average Record
Temperature  
Mean Temperature 17 °F 27 °F  
Max Temperature 25 °F 38 °F 68 °F (1937)
Min Temperature 8 °F 17 °F -20 °F (1932)
Degree Days  
Heating Degree Days 48 38  
Month to date heating degree days 229 232  
Since 1 July heating degree days 6045 6207  
Cooling Degree Days 0 0  
Month to date cooling degree days 0 0  
Year to date cooling degree days 0 0  
Moisture  
Dew Point 11 °F    
Average Humidity 76    
Maximum Humidity 91    
Minimum Humidity 60    
Precipitation  
Precipitation T in 0.02 in 0.74 in (1983)
Month to date precipitation 0.08 0.14  
Year to date precipitation 1.04 0.87  
Snow  
Snow 0.00 in - - ()
Month to date snowfall 1.0  
Since 1 July snowfall 25.3  
Snow Depth -    
Sea Level Pressure  
Sea Level Pressure 30.28 in    
Wind  
Wind Speed 13 mph (ESE)    
Max Wind Speed 26 mph    
Max Gust Speed 32 mph    
Visibility 10 miles    
Events Snow    
T = Trace of Precipitation, MM = Missing Value Source: NWS Daily Summary

Daily Weather History Graph

Daily Weather History Graph

Search for Another Location

Airport or City:

Trip Planner

Search our weather history database for the weather conditions in past years. The results will help you decide how hot, cold, wet, or windy it might be!

Date:

Astronomy

Mar. 06, 2013 Rise Set
Actual Time 7:10 AM CST 6:35 PM CST
Civil Twilight 6:40 AM CST 7:05 PM CST
Nautical Twilight 6:06 AM CST 7:39 PM CST
Astronomical Twilight 5:32 AM CST 8:14 PM CST
Moon 3:33 AM CST (3/6) 1:07 PM CST (3/6)
Length of Visible Light 12h 24m
Length of Day
11h 25m
Waning Crescent, 29% of the Moon is Illuminated
Mar 6
Waning Crescent
Mar 11
New
Mar 19
First Quarter
Mar 27
Full
Apr 2
Last Quarter

Hourly Weather History & Observations

Time (CST) Temp. Windchill Dew Point Humidity Pressure Visibility Wind Dir Wind Speed Gust Speed Precip Events Conditions
12:52 AM 14.0 °F 2.9 °F 10.0 °F 84% 30.43 in 10.0 mi East 8.1 mph - N/A   Mostly Cloudy
1:07 AM 12.2 °F 0.7 °F 10.4 °F 92% 30.34 in 10.0 mi East 8.1 mph - N/A   Scattered Clouds
1:19 AM 12.2 °F 2.9 °F 10.4 °F 92% 30.34 in 10.0 mi SSE 5.8 mph - N/A   Mostly Cloudy
1:52 AM 12.0 °F 4.1 °F 9.0 °F 88% 30.43 in 10.0 mi ESE 4.6 mph - N/A   Partly Cloudy
2:52 AM 10.9 °F -0.8 °F 7.0 °F 84% 30.42 in 10.0 mi East 8.1 mph - N/A   Clear
3:52 AM 10.0 °F -0.9 °F 6.1 °F 84% 30.41 in 10.0 mi ESE 6.9 mph - N/A   Clear
4:52 AM 10.0 °F -1.9 °F 6.1 °F 84% 30.41 in 10.0 mi East 8.1 mph - N/A   Clear
5:52 AM 9.0 °F -3.2 °F 5.0 °F 84% 30.41 in 10.0 mi East 8.1 mph - N/A   Clear
6:52 AM 8.1 °F -5.3 °F 3.9 °F 83% 30.41 in 10.0 mi East 9.2 mph - N/A   Clear
7:52 AM 9.0 °F -3.2 °F 6.1 °F 88% 30.41 in 9.0 mi East 8.1 mph - N/A   Scattered Clouds
7:59 AM 10.4 °F -1.5 °F 6.8 °F 85% 30.30 in 8.0 mi East 8.1 mph - N/A   Mostly Cloudy
8:27 AM 10.4 °F -0.4 °F 8.6 °F 92% 30.29 in 2.0 mi SE 6.9 mph - 0.00 in Snow Light Snow
8:36 AM 12.2 °F 1.7 °F 8.6 °F 85% 30.29 in 9.0 mi SE 6.9 mph - 0.00 in   Mostly Cloudy
8:44 AM 12.2 °F 1.7 °F 8.6 °F 85% 30.29 in 10.0 mi ESE 6.9 mph - 0.00 in   Scattered Clouds
8:52 AM 12.0 °F 1.5 °F 9.0 °F 88% 30.39 in 10.0 mi ESE 6.9 mph - 0.00 in   Mostly Cloudy
9:00 AM 12.2 °F 1.7 °F 10.4 °F 92% 30.29 in 8.0 mi SE 6.9 mph - N/A   Mostly Cloudy
9:52 AM 15.1 °F 2.5 °F 10.9 °F 84% 30.38 in 10.0 mi SE 10.4 mph - N/A   Mostly Cloudy
10:50 AM 17.6 °F 4.3 °F 12.2 °F 79% 30.26 in 10.0 mi SSE 12.7 mph - N/A   Scattered Clouds
10:52 AM 19.0 °F 6.8 °F 14.0 °F 81% 30.35 in 10.0 mi SSE 11.5 mph - N/A   Partly Cloudy
11:52 AM 21.9 °F 10.4 °F 14.0 °F 72% 30.32 in 10.0 mi ESE 11.5 mph - N/A   Clear
12:52 PM 21.9 °F 7.3 °F 12.9 °F 68% 30.30 in 10.0 mi ESE 18.4 mph - N/A   Clear
1:52 PM 23.0 °F 8.3 °F 12.9 °F 65% 30.25 in 10.0 mi ESE 19.6 mph - N/A   Clear
2:52 PM 24.1 °F 10.1 °F 14.0 °F 65% 30.22 in 10.0 mi ESE 18.4 mph - N/A   Clear
3:52 PM 24.1 °F 9.4 °F 12.9 °F 62% 30.20 in 10.0 mi ESE 20.7 mph - N/A   Clear
4:52 PM 21.9 °F 6.9 °F 12.9 °F 68% 30.19 in 10.0 mi SE 19.6 mph - N/A   Clear
5:52 PM 19.0 °F 2.4 °F 12.0 °F 74% 30.17 in 10.0 mi ESE 21.9 mph 27.6 mph N/A   Clear
6:52 PM 17.1 °F 2.0 °F 12.0 °F 81% 30.19 in 10.0 mi ESE 16.1 mph - N/A   Clear
7:52 PM 18.0 °F 3.1 °F 12.9 °F 81% 30.18 in 10.0 mi ESE 16.1 mph - N/A   Clear
8:52 PM 19.9 °F 5.2 °F 15.1 °F 81% 30.15 in 10.0 mi ESE 17.3 mph - N/A   Clear
9:52 PM 19.9 °F 6.2 °F 16.0 °F 85% 30.14 in 10.0 mi ESE 15.0 mph 24.2 mph N/A   Mostly Cloudy
10:14 PM 19.4 °F 4.1 °F 15.8 °F 86% 30.04 in 10.0 mi SE 18.4 mph 28.8 mph N/A   Scattered Clouds
10:52 PM 21.0 °F 6.6 °F 17.1 °F 85% 30.11 in 10.0 mi SE 17.3 mph - N/A   Clear
11:52 PM 21.0 °F 6.2 °F 16.0 °F 81% 30.09 in 10.0 mi SE 18.4 mph 29.9 mph N/A   Clear